TimeCDT,TemperatureF,Dew PointF,Humidity,Sea Level PressureIn,VisibilityMPH,Wind Direction,Wind SpeedMPH,Gust SpeedMPH,PrecipitationIn,Events,Conditions,WindDirDegrees,DateUTC
12:53 AM,59.0,43.0,55,30.08,10.0,South,8.1,-,N/A,,Clear,180,2013-03-15 05:53:00
1:53 AM,57.9,43.0,58,30.07,10.0,South,8.1,-,N/A,,Clear,180,2013-03-15 06:53:00
2:53 AM,59.0,44.1,58,30.05,10.0,South,10.4,-,N/A,,Clear,180,2013-03-15 07:53:00
3:53 AM,57.0,44.1,62,30.02,10.0,South,6.9,-,N/A,,Clear,180,2013-03-15 08:53:00
4:53 AM,55.9,44.1,64,30.01,10.0,South,8.1,-,N/A,,Clear,180,2013-03-15 09:53:00
5:53 AM,54.0,44.1,69,30.00,10.0,South,6.9,-,N/A,,Clear,180,2013-03-15 10:53:00
6:53 AM,53.6,44.6,72,30.01,10.0,South,5.8,-,N/A,,Clear,170,2013-03-15 11:53:00
7:53 AM,54.0,44.1,69,29.98,10.0,South,6.9,-,N/A,,Clear,180,2013-03-15 12:53:00
8:53 AM,59.0,45.0,60,29.97,10.0,South,9.2,-,N/A,,Clear,180,2013-03-15 13:53:00
9:53 AM,64.0,45.0,50,29.96,10.0,South,12.7,-,N/A,,Clear,180,2013-03-15 14:53:00
10:53 AM,69.1,44.1,40,29.94,10.0,SSW,12.7,-,N/A,,Clear,200,2013-03-15 15:53:00
11:53 AM,73.0,43.0,34,29.91,10.0,Variable,6.9,20.7,N/A,,Clear,0,2013-03-15 16:53:00
12:53 PM,78.1,43.0,29,29.89,10.0,SSW,8.1,18.4,N/A,,Clear,210,2013-03-15 17:53:00
1:53 PM,81.0,43.0,26,29.84,10.0,SSW,13.8,20.7,N/A,,Clear,200,2013-03-15 18:53:00
2:53 PM,82.9,42.1,24,29.80,10.0,SW,17.3,26.5,N/A,,Clear,230,2013-03-15 19:53:00
3:53 PM,84.0,42.1,23,29.77,10.0,SSW,11.5,29.9,N/A,,Clear,210,2013-03-15 20:53:00
4:53 PM,82.9,43.0,24,29.76,10.0,SSW,19.6,25.3,N/A,,Clear,200,2013-03-15 21:53:00
5:53 PM,82.0,43.0,25,29.75,10.0,SSW,15.0,25.3,N/A,,Clear,200,2013-03-15 22:53:00
6:53 PM,80.1,42.1,26,29.75,10.0,SW,10.4,23.0,N/A,,Clear,220,2013-03-15 23:53:00
7:53 PM,77.0,43.0,30,29.74,10.0,South,15.0,-,N/A,,Clear,190,2013-03-16 00:53:00
8:53 PM,75.0,46.9,37,29.74,10.0,South,15.0,-,N/A,,Clear,180,2013-03-16 01:53:00
9:53 PM,73.0,46.9,39,29.73,10.0,South,19.6,-,N/A,,Clear,180,2013-03-16 02:53:00
10:53 PM,71.1,44.1,38,29.73,10.0,South,19.6,28.8,N/A,,Clear,190,2013-03-16 03:53:00
11:53 PM,69.1,43.0,39,29.72,10.0,South,16.1,-,N/A,,Clear,190,2013-03-16 04:53:00